[[[{"header":{"parameterUnit":"kt","parameterCategory":2,"dx":1,"dy":1,"la1":30.253999710083008,"la2":30.299108505249023,"lo1":-89.0895004272461,"lo2":-89.04439544677734,"nx":28,"ny":28,"refTime":"2022-10-21T21:00:00:Z","depth":0,"parameterNumber":1,"parameterNumberName":"U-component_of_WINDS"},"data":[-1.9254,-1.9301,-1.9309,-1.9369,-1.9387,-1.943,-1.9449,-1.9474,-1.9497,-1.9552,-1.9586,-1.9601,-1.9629,-1.9674,-1.9713,-1.972,-1.9736,-1.9748,-1.9754,-1.969,-1.9682,-1.9675,-1.9663,-1.9751,-1.9751,-1.9819,-1.982,-1.982,-1.9211,-1.9228,-1.9261,-1.9298,-1.9328,-1.9321,-1.9352,-1.9378,-1.9417,-1.9446,-1.9478,-1.9528,-1.957,-1.9594,-1.9637,-1.9663,-1.9664,-1.9674,-1.9673,-1.9678,-1.961,-1.9597,-1.9673,-1.9673,-1.9673,-1.9673,-1.9673,-1.9673,-1.9134,-1.9162,-1.9189,-1.9225,-1.9246,-1.9272,-1.9301,-1.9317,-1.9351,-1.9393,-1.9397,-1.9443,-1.9474,-1.9529,-1.955,-1.9588,-1.9578,-1.9593,-1.9597,-1.9601,-1.9605,-1.951,-1.9596,-1.9595,-1.9595,-1.9595,-1.9595,0,-1.9081,-1.9085,-1.9117,-1.9151,-1.9178,-1.9205,-1.9232,-1.9251,-1.9264,-1.9292,-1.9333,-1.9359,-1.9411,-1.9453,-1.9494,-1.9513,-1.9511,-1.9512,-1.9522,-1.9521,-1.9516,-1.9522,-1.9412,-1.9509,-1.9508,-1.9508,-1.9507,-1.9507,-1.9006,-1.9037,-1.9068,-1.9089,-1.9105,-1.9139,-1.9162,-1.917,-1.9195,-1.923,-1.9256,-1.9297,-1.933,-1.9398,-1.9418,-1.9458,-1.9458,-1.9494,-1.9463,-1.9462,-1.946,-1.9459,-1.9463,-1.95,-1.9501,-1.9501,-1.9502,0,-1.8964,-1.8974,-1.9025,-1.9052,-1.906,-1.9093,-1.9117,-1.9147,-1.9159,-1.9201,-1.9212,-1.9231,-1.9273,-1.9287,-1.9337,-1.9344,-1.9405,-1.9403,-1.9395,-1.9396,-1.9431,-1.9428,-1.954,-1.9556,-1.9463,-1.9463,-1.9464,0,-1.8905,-1.8945,-1.8959,-1.8987,-1.9034,-1.904,-1.9086,-1.91,-1.9124,-1.9158,-1.9155,-1.9188,-1.92,-1.9235,-1.9244,-1.9296,-1.9305,-1.9314,-1.9316,-1.9315,-1.9314,-1.9329,-1.9325,-1.9317,-1.9317,-1.9316,-1.9316,0,-1.8838,-1.8891,-1.8937,-1.8952,-1.8984,-1.9006,-1.9021,-1.9047,-1.9069,-1.9101,-1.9116,-1.9152,-1.9172,-1.9202,-1.9213,-1.9192,-1.9276,-1.925,-1.9285,-1.9285,-1.9303,-1.9302,-1.9396,-1.9315,-1.9315,-1.9315,-1.9315,0,-1.8791,-1.8819,-1.8884,-1.8911,-1.8925,-1.8955,-1.899,-1.9019,-1.9047,-1.9054,-1.9078,-1.9078,-1.9122,-1.9096,-1.9158,-1.9128,-1.9149,-1.916,-1.9163,-1.9168,-1.9138,-1.9191,-1.9279,-1.9289,-1.9174,-1.9173,-1.9172,0,-1.8713,-1.878,-1.8784,-1.8846,-1.8878,-1.8872,-1.8907,-1.893,-1.8942,-1.8973,-1.8987,-1.9023,-1.9005,-1.9018,-1.9047,-1.9063,-1.9103,-1.9058,-1.9108,-1.911,-1.9102,-1.9182,-1.9192,-1.9258,-1.9157,-1.9158,-1.916,0,-1.8653,-1.8688,-1.8699,-1.8715,-1.8744,-1.8771,-1.8811,-1.8846,-1.8867,-1.8893,-1.8928,-1.8977,-1.8967,-1.8988,-1.8991,-1.9021,-1.9077,-1.9005,-1.9006,-1.9019,-1.9149,-1.9159,-1.917,-1.9073,-1.9075,-1.9076,-1.9148,0,-1.8583,-1.8617,-1.8644,-1.8678,-1.87,-1.8738,-1.8748,-1.8771,-1.8771,-1.8781,-1.8832,-1.8854,-1.8891,-1.8906,-1.8906,-1.8968,-1.896,-1.8948,-1.8922,-1.8975,-1.8999,-1.9008,-1.8886,-1.8885,-1.8885,-1.8884,0,0,-1.8506,-1.8553,-1.8555,-1.8591,-1.861,-1.8602,-1.8642,-1.866,-1.8696,-1.871,-1.8696,-1.8769,-1.8787,-1.8848,-1.8864,-1.8879,-1.8892,-1.8872,-1.8949,-1.8957,-1.8963,-1.8989,-1.8998,-1.8883,-1.8883,-1.8883,-1.8883,0,-1.8482,-1.8497,-1.8535,-1.8552,-1.8578,-1.8586,-1.8595,-1.862,-1.8628,-1.8676,-1.8669,-1.8701,-1.8757,-1.8779,-1.8797,-1.8865,-1.8859,-1.8876,-1.8909,-1.8943,-1.8951,-1.8958,-1.8985,-1.8994,-1.8881,-1.8882,-1.8882,0,-1.8426,-1.8442,-1.8461,-1.85,-1.8517,-1.855,-1.8526,-1.8561,-1.8586,-1.8576,-1.8623,-1.8637,-1.8665,-1.8719,-1.8744,-1.8732,-1.883,-1.88,-1.8803,-1.8807,-1.884,-1.885,-1.8858,-1.8747,-1.8746,-1.8746,0,0,-1.8404,-1.8433,-1.8453,-1.8495,-1.8507,-1.8518,-1.8536,-1.8537,-1.856,-1.857,-1.8586,-1.8611,-1.8645,-1.8666,-1.8698,-1.8756,-1.8764,-1.8782,-1.8789,-1.8794,-1.88,-1.8835,-1.8844,-1.8744,-1.8744,-1.8744,0,0,-1.8394,-1.8417,-1.8411,-1.8461,-1.8483,-1.8506,-1.8533,-1.8527,-1.8555,-1.8552,-1.8557,-1.8563,-1.8614,-1.8628,-1.86,-1.869,-1.8664,-1.8671,-1.8678,-1.8687,-1.8693,-1.8689,-1.8579,0,0,0,0,0,-1.8373,-1.8414,-1.8409,-1.8418,-1.8468,-1.8509,-1.8515,-1.8519,-1.8501,-1.8522,-1.8536,-1.8527,-1.8614,-1.859,-1.8601,-1.8631,-1.8719,-1.8723,-1.8727,-1.8751,-1.8759,-1.8766,0,0,0,0,0,0,-1.8376,-1.8388,-1.8408,-1.8432,-1.8443,-1.8507,-1.8478,-1.848,-1.8499,-1.8496,-1.8525,-1.8528,-1.8533,-1.8585,-1.8595,-1.8623,-1.8576,-1.872,-1.8724,-1.8728,-1.8754,-1.876,-1.8766,0,0,0,0,0,-1.8379,-1.8389,-1.8466,-1.8431,-1.8441,-1.8455,-1.8477,-1.8478,-1.8493,-1.8512,-1.8515,-1.8493,-1.8533,-1.8542,-1.8591,-1.8619,-1.8569,-1.8573,-1.8723,-1.8726,-1.8729,-1.8757,0,0,0,0,0,0,-1.8382,-1.8391,-1.8469,-1.8472,-1.8415,-1.8452,-1.8458,-1.8476,-1.8507,-1.8511,-1.8481,-1.8479,-1.8534,-1.854,-1.8547,-1.8617,-1.8564,-1.8568,-1.857,-1.8725,-1.8727,-1.873,0,0,0,0,0,0,-1.8386,-1.8394,-1.847,-1.8449,-1.845,-1.8449,-1.8454,-1.8496,-1.8508,-1.8475,-1.8474,-1.848,-1.8525,-1.854,-1.8545,-1.861,-1.856,-1.8563,-1.8566,-1.8567,-1.8727,-1.8729,0,0,0,0,0,0,-1.839,-1.8396,-1.8449,-1.8449,-1.845,-1.8486,-1.8486,-1.8537,-1.8488,-1.8473,-1.8484,-1.8482,-1.8525,-1.853,-1.8544,-1.8607,-1.861,-1.856,-1.8562,-1.8564,-1.8565,0,0,0,0,0,0,0,-1.8392,-1.8346,-1.8449,-1.8449,-1.845,-1.8501,-1.8502,-1.8503,-1.8488,-1.8486,-1.8485,-1.8483,-1.854,-1.8544,-1.8548,-1.8604,0,0,-1.856,-1.8561,0,0,0,0,0,0,0,0,-1.8344,-1.8346,-1.845,-1.845,-1.8451,-1.8501,-1.8502,-1.8503,-1.8488,-1.8486,-1.8485,-1.8484,-1.8541,-1.8544,-1.8547,0,0,0,0,0,0,0,0,0,0,0,0,0,0,0,-1.845,-1.845,0,-1.8501,-1.8502,-1.8503,-1.8487,-1.8486,-1.8485,-1.8484,-1.8542,-1.8545,-1.8547,0,0,0,0,0,0,0,0,0,0,0,0,0,0,0,0,0,0,0,0,0,0,0,0,0,0,0,0,0,0,0,0,0,0,0,0,0,0,0,0,0,0,0,0,0,0,0,0,0,0,0,0,0,0,0,0,0,0,0,0,0,0,0,0,0,0,0,0,0]}],[{"header":{"parameterUnit":"kt","parameterCategory":2,"dx":1,"dy":1,"la1":30.253999710083008,"la2":30.299108505249023,"lo1":-89.0895004272461,"lo2":-89.04439544677734,"nx":28,"ny":28,"refTime":"2022-10-21T21:00:00:Z","depth":0,"parameterNumber":2,"parameterNumberName":"V-component_of_WINDS"},"data":[7.1815,7.1776,7.1779,7.1734,7.1728,7.1696,7.1685,7.167,7.1658,7.1618,7.1594,7.159,7.1575,7.1544,7.1516,7.1514,7.1501,7.1486,7.1485,7.1555,7.1565,7.1574,7.1584,7.1483,7.1483,7.1411,7.141,7.141,7.1865,7.1859,7.1837,7.1817,7.1797,7.1813,7.1796,7.1777,7.1748,7.1733,7.171,7.1673,7.1643,7.1634,7.1603,7.1581,7.1585,7.1573,7.1573,7.157,7.1646,7.1657,7.157,7.157,7.157,7.157,7.157,7.157,7.1955,7.1932,7.1922,7.1898,7.1888,7.1873,7.185,7.1847,7.1822,7.1795,7.18,7.1765,7.1748,7.1712,7.1699,7.1669,7.1682,7.1668,7.1664,7.1659,7.1654,7.1755,7.1664,7.1665,7.1665,7.1665,7.1665,0,7.2022,7.2026,7.2005,7.1985,7.1967,7.195,7.1935,7.192,7.1926,7.1905,7.1875,7.1857,7.182,7.1789,7.1761,7.1751,7.1761,7.1762,7.1752,7.1748,7.1748,7.1745,7.1867,7.1764,7.1765,7.1766,7.1766,7.1767,7.2111,7.2085,7.2076,7.206,7.2053,7.2028,7.2013,7.2021,7.2003,7.1984,7.1961,7.1931,7.1908,7.1856,7.1848,7.1819,7.1823,7.1783,7.1818,7.1816,7.1819,7.182,7.1816,7.1776,7.1775,7.1774,7.1773,0,7.2161,7.2166,7.2125,7.2118,7.2115,7.2086,7.2078,7.2053,7.2053,7.2018,7.201,7.2007,7.1976,7.1975,7.1938,7.1937,7.1882,7.1888,7.1888,7.1888,7.1851,7.1853,7.1735,7.1719,7.1826,7.1825,7.1824,0,7.2238,7.2203,7.2212,7.2188,7.2148,7.2157,7.2116,7.2112,7.21,7.2073,7.2087,7.2061,7.2065,7.2037,7.2037,7.1992,7.1985,7.1981,7.1981,7.1979,7.1979,7.1966,7.197,7.1985,7.1986,7.1986,7.1987,0,7.2314,7.2278,7.224,7.2232,7.222,7.2201,7.2194,7.2181,7.2165,7.2145,7.2134,7.2108,7.2094,7.2072,7.2072,7.2096,7.2018,7.205,7.2013,7.2013,7.1994,7.1995,7.1893,7.1988,7.1988,7.1988,7.1988,0,7.2376,7.236,7.2305,7.2295,7.2284,7.2258,7.2236,7.2214,7.2199,7.2198,7.2181,7.219,7.2154,7.2185,7.2132,7.2163,7.2146,7.214,7.2137,7.2131,7.2166,7.2106,7.2011,7.2,7.2129,7.213,7.2131,0,7.2461,7.2407,7.2416,7.2362,7.2337,7.2357,7.2327,7.2314,7.2311,7.2287,7.2283,7.2255,7.2278,7.2269,7.2244,7.2237,7.2197,7.2242,7.22,7.2199,7.2203,7.2116,7.2102,7.2033,7.2146,7.2144,7.2143,0,7.2527,7.2516,7.2506,7.2497,7.2484,7.2463,7.2429,7.2405,7.2389,7.2373,7.2343,7.2304,7.2319,7.2304,7.2308,7.2281,7.2224,7.2301,7.2301,7.2285,7.2154,7.214,7.2129,7.2232,7.223,7.2229,7.2155,0,7.2616,7.2591,7.2565,7.2546,7.253,7.2497,7.2501,7.2483,7.2491,7.2489,7.2446,7.2434,7.2406,7.2394,7.24,7.234,7.2349,7.2366,7.2394,7.2339,7.2314,7.2305,7.2431,7.2432,7.2433,7.2433,0,0,7.2694,7.2658,7.2669,7.264,7.2627,7.2648,7.2612,7.2602,7.2579,7.2569,7.2586,7.2528,7.2517,7.2464,7.2447,7.2436,7.2424,7.2444,7.2366,7.2359,7.2352,7.2325,7.2315,7.2434,7.2435,7.2435,7.2435,0,7.2727,7.2723,7.2689,7.268,7.2667,7.2668,7.2659,7.2649,7.2646,7.2606,7.262,7.2595,7.2549,7.2534,7.2521,7.2451,7.2462,7.2443,7.2404,7.2373,7.2365,7.2358,7.233,7.2321,7.2437,7.2437,7.2437,0,7.2791,7.2786,7.2771,7.2746,7.2737,7.2711,7.2743,7.2714,7.2694,7.2715,7.2674,7.2667,7.2648,7.2599,7.2577,7.259,7.2496,7.2527,7.2522,7.2519,7.2488,7.2478,7.2469,7.2587,7.2588,7.2588,0,0,7.2819,7.2797,7.2793,7.2754,7.2747,7.2748,7.2735,7.2741,7.2727,7.272,7.2712,7.2695,7.2668,7.265,7.2625,7.2571,7.2566,7.2545,7.2538,7.2532,7.2526,7.2494,7.2484,7.259,7.259,7.259,0,0,7.2832,7.2827,7.2838,7.2794,7.2781,7.2773,7.2747,7.2759,7.2738,7.2742,7.2748,7.2743,7.2697,7.2689,7.2716,7.2634,7.2663,7.2657,7.2641,7.2632,7.2625,7.2627,7.2744,0,0,0,0,0,7.2869,7.2828,7.2838,7.2832,7.2799,7.2768,7.2763,7.2769,7.279,7.2769,7.2764,7.2777,7.2705,7.2729,7.272,7.2689,7.2616,7.2611,7.2607,7.2574,7.2565,7.2557,0,0,0,0,0,0,7.2866,7.2858,7.2839,7.2829,7.2822,7.2769,7.2805,7.2805,7.2792,7.2796,7.2778,7.2777,7.2779,7.2733,7.2725,7.2696,7.2747,7.2614,7.261,7.2607,7.2571,7.2563,7.2557,0,0,0,0,0,7.2864,7.2858,7.2805,7.283,7.2823,7.2822,7.2807,7.2807,7.2797,7.2789,7.2788,7.2803,7.2778,7.2772,7.2729,7.27,7.2753,7.275,7.2611,7.2608,7.2606,7.2567,0,0,0,0,0,0,7.2863,7.2857,7.2804,7.2802,7.2846,7.2825,7.2822,7.2809,7.2791,7.279,7.2813,7.2816,7.2777,7.2772,7.2767,7.2701,7.2757,7.2754,7.2752,7.2609,7.2607,7.2605,0,0,0,0,0,0,7.286,7.2855,7.2803,7.2823,7.2824,7.2828,7.2825,7.2789,7.279,7.2816,7.2818,7.2815,7.2783,7.2773,7.2769,7.2712,7.276,7.2758,7.2756,7.2754,7.2607,7.2605,0,0,0,0,0,0,7.2858,7.2854,7.2824,7.2824,7.2825,7.2804,7.2795,7.2761,7.2811,7.2816,7.2816,7.2818,7.2783,7.2779,7.2769,7.2714,7.2712,7.276,7.2758,7.2757,7.2756,0,0,0,0,0,0,0,7.2856,7.2886,7.2815,7.2825,7.2825,7.2785,7.2784,7.2784,7.2812,7.2813,7.2815,7.2817,7.2777,7.2774,7.277,7.2716,0,0,7.2761,7.2759,0,0,0,0,0,0,0,0,7.2888,7.2886,7.2815,7.2814,7.2814,7.2785,7.2784,7.2784,7.2812,7.2813,7.2815,7.2816,7.2776,7.2773,7.2771,0,0,0,0,0,0,0,0,0,0,0,0,0,0,0,7.2815,7.2814,0,7.2785,7.2784,7.2784,7.2812,7.2813,7.2814,7.2816,7.2775,7.2773,7.2771,0,0,0,0,0,0,0,0,0,0,0,0,0,0,0,0,0,0,0,0,0,0,0,0,0,0,0,0,0,0,0,0,0,0,0,0,0,0,0,0,0,0,0,0,0,0,0,0,0,0,0,0,0,0,0,0,0,0,0,0,0,0,0,0,0,0,0,0,0]}]]]